Wetterdaten: Donnerstag, 01.10.2015
Datum Zeit Temperatur Luftfeuchte Luftdruck Regen Wind Richtung Richtung Sonnenschein ET UV Solar Taupunkt Windchill Windben
01.10.2015 00:00 8,3 C 72 % 1032,3 hPa 0,0 l/m 2,1 km/h (1 Bft) O-NO 59 0 min 0,000 mm 0,0 UV-I 0 W/m 3,6 C 8,3 C 6,4 km/h (2 Bft)
01.10.2015 00:05 8,2 C 72 % 1032,2 hPa 0,0 l/m 0,9 km/h (0 Bft) O-NO 71 0 min 0,000 mm 0,0 UV-I 0 W/m 3,5 C 8,2 C 4,8 km/h (1 Bft)
01.10.2015 00:10 8,2 C 72 % 1032,2 hPa 0,0 l/m 0,7 km/h (0 Bft) NO 53 0 min 0,000 mm 0,0 UV-I 0 W/m 3,5 C 8,2 C 4,8 km/h (1 Bft)
01.10.2015 00:15 8,2 C 72 % 1032,2 hPa 0,0 l/m 0,3 km/h (0 Bft) NO 46 0 min 0,000 mm 0,0 UV-I 0 W/m 3,5 C 8,2 C 3,2 km/h (1 Bft)
01.10.2015 00:20 8,1 C 73 % 1032,2 hPa 0,0 l/m 0,7 km/h (0 Bft) O 89 0 min 0,000 mm 0,0 UV-I 0 W/m 3,6 C 8,1 C 3,2 km/h (1 Bft)
01.10.2015 00:25 8,1 C 73 % 1032,1 hPa 0,0 l/m 0,1 km/h (0 Bft) O-NO 72 0 min 0,000 mm 0,0 UV-I 0 W/m 3,6 C 8,1 C 1,6 km/h (1 Bft)
01.10.2015 00:30 8,1 C 73 % 1032,1 hPa 0,0 l/m 0,1 km/h (0 Bft) NO 51 0 min 0,000 mm 0,0 UV-I 0 W/m 3,6 C 8,1 C 3,2 km/h (1 Bft)
01.10.2015 00:35 8,0 C 73 % 1032,1 hPa 0,0 l/m 0,8 km/h (0 Bft) O-NO 71 0 min 0,000 mm 0,0 UV-I 0 W/m 3,5 C 8,0 C 3,2 km/h (1 Bft)
01.10.2015 00:40 7,9 C 73 % 1032,1 hPa 0,0 l/m 0,9 km/h (0 Bft) NO 53 0 min 0,000 mm 0,0 UV-I 0 W/m 3,4 C 7,9 C 4,8 km/h (1 Bft)
01.10.2015 00:45 7,8 C 73 % 1032,1 hPa 0,0 l/m 0,6 km/h (0 Bft) NO 53 0 min 0,000 mm 0,0 UV-I 0 W/m 3,3 C 7,8 C 4,8 km/h (1 Bft)
01.10.2015 00:50 7,7 C 74 % 1032,0 hPa 0,0 l/m 1,2 km/h (1 Bft) NO 47 0 min 0,000 mm 0,0 UV-I 0 W/m 3,4 C 7,7 C 4,8 km/h (1 Bft)
01.10.2015 00:55 7,7 C 74 % 1032,0 hPa 0,0 l/m 1,4 km/h (1 Bft) O-NO 67 0 min 0,000 mm 0,0 UV-I 0 W/m 3,4 C 7,7 C 4,8 km/h (1 Bft)
01.10.2015 01:00 7,8 C 74 % 1031,9 hPa 0,0 l/m 1,1 km/h (1 Bft) O-NO 62 0 min 0,000 mm 0,0 UV-I 0 W/m 3,5 C 7,8 C 3,2 km/h (1 Bft)
01.10.2015 01:05 7,8 C 74 % 1031,9 hPa 0,0 l/m 0,9 km/h (0 Bft) O-NO 65 0 min 0,025 mm 0,0 UV-I 0 W/m 3,5 C 7,8 C 3,2 km/h (1 Bft)
01.10.2015 01:10 7,8 C 74 % 1031,8 hPa 0,0 l/m 0,0 km/h (0 Bft) O-NO 65 0 min 0,000 mm 0,0 UV-I 0 W/m 3,5 C 7,8 C 0,0 km/h (0 Bft)
01.10.2015 01:15 7,8 C 74 % 1031,8 hPa 0,0 l/m 1,6 km/h (1 Bft) NO 55 0 min 0,000 mm 0,0 UV-I 0 W/m 3,5 C 7,8 C 4,8 km/h (1 Bft)
01.10.2015 01:20 7,8 C 74 % 1031,7 hPa 0,0 l/m 0,3 km/h (0 Bft) O 92 0 min 0,000 mm 0,0 UV-I 0 W/m 3,5 C 7,8 C 4,8 km/h (1 Bft)
01.10.2015 01:25 7,8 C 74 % 1031,7 hPa 0,0 l/m 0,2 km/h (0 Bft) O 89 0 min 0,000 mm 0,0 UV-I 0 W/m 3,5 C 7,8 C 3,2 km/h (1 Bft)
01.10.2015 01:30 7,7 C 74 % 1031,6 hPa 0,0 l/m 0,3 km/h (0 Bft) O 80 0 min 0,000 mm 0,0 UV-I 0 W/m 3,4 C 7,7 C 3,2 km/h (1 Bft)
01.10.2015 01:35 7,6 C 74 % 1031,6 hPa 0,0 l/m 0,1 km/h (0 Bft) NO 36 0 min 0,000 mm 0,0 UV-I 0 W/m 3,3 C 7,6 C 1,6 km/h (1 Bft)
01.10.2015 01:40 7,6 C 75 % 1031,6 hPa 0,0 l/m 0,8 km/h (0 Bft) O-NO 73 0 min 0,000 mm 0,0 UV-I 0 W/m 3,5 C 7,6 C 3,2 km/h (1 Bft)
01.10.2015 01:45 7,5 C 75 % 1031,5 hPa 0,0 l/m 0,1 km/h (0 Bft) O-NO 69 0 min 0,000 mm 0,0 UV-I 0 W/m 3,4 C 7,5 C 1,6 km/h (1 Bft)
01.10.2015 01:50 7,4 C 75 % 1031,6 hPa 0,0 l/m 0,3 km/h (0 Bft) O-SO 103 0 min 0,000 mm 0,0 UV-I 0 W/m 3,3 C 7,4 C 3,2 km/h (1 Bft)
01.10.2015 01:55 7,3 C 75 % 1031,6 hPa 0,0 l/m 2,0 km/h (1 Bft) O-NO 61 0 min 0,000 mm 0,0 UV-I 0 W/m 3,2 C 7,3 C 6,4 km/h (2 Bft)
01.10.2015 02:00 7,4 C 75 % 1031,5 hPa 0,0 l/m 0,5 km/h (0 Bft) NO 56 0 min 0,000 mm 0,0 UV-I 0 W/m 3,3 C 7,4 C 6,4 km/h (2 Bft)
01.10.2015 02:05 7,4 C 75 % 1031,6 hPa 0,0 l/m 0,2 km/h (0 Bft) O-NO 59 0 min 0,026 mm 0,0 UV-I 0 W/m 3,3 C 7,4 C 3,2 km/h (1 Bft)
01.10.2015 02:10 7,4 C 75 % 1031,6 hPa 0,0 l/m 0,8 km/h (0 Bft) O 97 0 min 0,000 mm 0,0 UV-I 0 W/m 3,3 C 7,4 C 8,0 km/h (2 Bft)
01.10.2015 02:15 7,4 C 75 % 1031,6 hPa 0,0 l/m 0,0 km/h (0 Bft) O 97 0 min 0,000 mm 0,0 UV-I 0 W/m 3,3 C 7,4 C 1,6 km/h (1 Bft)
01.10.2015 02:20 7,3 C 75 % 1031,6 hPa 0,0 l/m 0,0 km/h (0 Bft) O 97 0 min 0,000 mm 0,0 UV-I 0 W/m 3,2 C 7,3 C 0,0 km/h (0 Bft)
01.10.2015 02:25 7,3 C 75 % 1031,5 hPa 0,0 l/m 0,0 km/h (0 Bft) O 97 0 min 0,000 mm 0,0 UV-I 0 W/m 3,2 C 7,3 C 0,0 km/h (0 Bft)
01.10.2015 02:30 7,3 C 75 % 1031,5 hPa 0,0 l/m 0,0 km/h (0 Bft) O 97 0 min 0,000 mm 0,0 UV-I 0 W/m 3,2 C 7,3 C 0,0 km/h (0 Bft)
01.10.2015 02:35 7,2 C 75 % 1031,4 hPa 0,0 l/m 0,0 km/h (0 Bft) O 97 0 min 0,000 mm 0,0 UV-I 0 W/m 3,1 C 7,2 C 0,0 km/h (0 Bft)
01.10.2015 02:40 7,0 C 76 % 1031,4 hPa 0,0 l/m 0,0 km/h (0 Bft) O 97 0 min 0,000 mm 0,0 UV-I 0 W/m 3,1 C 7,0 C 0,0 km/h (0 Bft)
01.10.2015 02:45 7,1 C 76 % 1031,4 hPa 0,0 l/m 0,0 km/h (0 Bft) O 97 0 min 0,000 mm 0,0 UV-I 0 W/m 3,2 C 7,1 C 0,0 km/h (0 Bft)
01.10.2015 02:50 6,9 C 76 % 1031,3 hPa 0,0 l/m 0,0 km/h (0 Bft) N-NO 14 0 min 0,000 mm 0,0 UV-I 0 W/m 3,0 C 6,9 C 0,0 km/h (0 Bft)
01.10.2015 02:55 6,8 C 76 % 1031,3 hPa 0,0 l/m 0,1 km/h (0 Bft) N-NO 19 0 min 0,000 mm 0,0 UV-I 0 W/m 2,9 C 6,8 C 3,2 km/h (1 Bft)
01.10.2015 03:00 6,7 C 77 % 1031,3 hPa 0,0 l/m 0,0 km/h (0 Bft) N-NO 19 0 min 0,000 mm 0,0 UV-I 0 W/m 3,0 C 6,7 C 1,6 km/h (1 Bft)
01.10.2015 03:05 6,6 C 77 % 1031,2 hPa 0,0 l/m 0,0 km/h (0 Bft) N-NO 19 0 min 0,025 mm 0,0 UV-I 0 W/m 2,9 C 6,6 C 0,0 km/h (0 Bft)
01.10.2015 03:10 6,6 C 78 % 1031,2 hPa 0,0 l/m 0,0 km/h (0 Bft) N-NO 19 0 min 0,000 mm 0,0 UV-I 0 W/m 3,0 C 6,6 C 0,0 km/h (0 Bft)
01.10.2015 03:15 6,5 C 78 % 1031,2 hPa 0,0 l/m 0,0 km/h (0 Bft) N-NO 19 0 min 0,000 mm 0,0 UV-I 0 W/m 2,9 C 6,5 C 0,0 km/h (0 Bft)
01.10.2015 03:20 6,3 C 77 % 1031,1 hPa 0,0 l/m 0,0 km/h (0 Bft) N-NO 19 0 min 0,000 mm 0,0 UV-I 0 W/m 2,6 C 6,3 C 0,0 km/h (0 Bft)
01.10.2015 03:25 6,2 C 78 % 1031,0 hPa 0,0 l/m 0,0 km/h (0 Bft) N-NO 19 0 min 0,000 mm 0,0 UV-I 0 W/m 2,7 C 6,2 C 0,0 km/h (0 Bft)
01.10.2015 03:30 6,0 C 79 % 1031,0 hPa 0,0 l/m 0,0 km/h (0 Bft) N-NO 19 0 min 0,000 mm 0,0 UV-I 0 W/m 2,6 C 6,0 C 0,0 km/h (0 Bft)
01.10.2015 03:35 6,1 C 79 % 1031,1 hPa 0,0 l/m 0,0 km/h (0 Bft) N-NO 22 0 min 0,000 mm 0,0 UV-I 0 W/m 2,7 C 6,1 C 0,0 km/h (0 Bft)
01.10.2015 03:40 6,2 C 79 % 1031,0 hPa 0,0 l/m 0,0 km/h (0 Bft) N-NO 22 0 min 0,000 mm 0,0 UV-I 0 W/m 2,8 C 6,2 C 0,0 km/h (0 Bft)
01.10.2015 03:45 6,2 C 78 % 1031,0 hPa 0,0 l/m 0,0 km/h (0 Bft) N-NO 22 0 min 0,000 mm 0,0 UV-I 0 W/m 2,7 C 6,2 C 0,0 km/h (0 Bft)
01.10.2015 03:50 6,3 C 79 % 1030,9 hPa 0,0 l/m 0,0 km/h (0 Bft) N-NO 22 0 min 0,000 mm 0,0 UV-I 0 W/m 2,9 C 6,3 C 0,0 km/h (0 Bft)
01.10.2015 03:55 6,6 C 78 % 1030,9 hPa 0,0 l/m 0,3 km/h (0 Bft) O-NO 67 0 min 0,000 mm 0,0 UV-I 0 W/m 3,0 C 6,6 C 3,2 km/h (1 Bft)
01.10.2015 04:00 6,6 C 78 % 1031,0 hPa 0,0 l/m 0,0 km/h (0 Bft) O-NO 67 0 min 0,000 mm 0,0 UV-I 0 W/m 3,0 C 6,6 C 0,0 km/h (0 Bft)
01.10.2015 04:05 6,4 C 78 % 1030,8 hPa 0,0 l/m 1,5 km/h (1 Bft) NO 53 0 min 0,000 mm 0,0 UV-I 0 W/m 2,8 C 6,4 C 4,8 km/h (1 Bft)
01.10.2015 04:10 6,3 C 78 % 1030,8 hPa 0,0 l/m 1,6 km/h (1 Bft) NO 46 0 min 0,000 mm 0,0 UV-I 0 W/m 2,8 C 6,3 C 4,8 km/h (1 Bft)
01.10.2015 04:15 6,2 C 78 % 1030,9 hPa 0,0 l/m 1,2 km/h (1 Bft) NO 45 0 min 0,000 mm 0,0 UV-I 0 W/m 2,7 C 6,2 C 4,8 km/h (1 Bft)
01.10.2015 04:20 6,2 C 79 % 1030,8 hPa 0,0 l/m 1,1 km/h (1 Bft) NO 44 0 min 0,000 mm 0,0 UV-I 0 W/m 2,8 C 6,2 C 3,2 km/h (1 Bft)
01.10.2015 04:25 6,1 C 79 % 1030,8 hPa 0,0 l/m 0,2 km/h (0 Bft) O-NO 71 0 min 0,000 mm 0,0 UV-I 0 W/m 2,7 C 6,1 C 3,2 km/h (1 Bft)
01.10.2015 04:30 5,9 C 79 % 1030,7 hPa 0,0 l/m 0,0 km/h (0 Bft) O-NO 71 0 min 0,000 mm 0,0 UV-I 0 W/m 2,5 C 5,9 C 0,0 km/h (0 Bft)
01.10.2015 04:35 5,8 C 79 % 1030,7 hPa 0,0 l/m 0,1 km/h (0 Bft) N 5 0 min 0,000 mm 0,0 UV-I 0 W/m 2,4 C 5,8 C 1,6 km/h (1 Bft)
01.10.2015 04:40 5,7 C 80 % 1030,7 hPa 0,0 l/m 0,4 km/h (0 Bft) NO 40 0 min 0,000 mm 0,0 UV-I 0 W/m 2,5 C 5,7 C 3,2 km/h (1 Bft)
01.10.2015 04:45 5,7 C 80 % 1030,7 hPa 0,0 l/m 1,1 km/h (1 Bft) N-NO 24 0 min 0,000 mm 0,0 UV-I 0 W/m 2,5 C 5,7 C 3,2 km/h (1 Bft)
01.10.2015 04:50 5,7 C 79 % 1030,6 hPa 0,0 l/m 1,2 km/h (1 Bft) O-NO 58 0 min 0,000 mm 0,0 UV-I 0 W/m 2,3 C 5,7 C 4,8 km/h (1 Bft)
01.10.2015 04:55 5,7 C 79 % 1030,6 hPa 0,0 l/m 0,8 km/h (0 Bft) O-NO 59 0 min 0,000 mm 0,0 UV-I 0 W/m 2,3 C 5,7 C 4,8 km/h (1 Bft)
01.10.2015 05:00 5,7 C 80 % 1030,7 hPa 0,0 l/m 0,2 km/h (0 Bft) O-NO 67 0 min 0,026 mm 0,0 UV-I 0 W/m 2,5 C 5,7 C 3,2 km/h (1 Bft)
01.10.2015 05:05 5,7 C 80 % 1030,6 hPa 0,0 l/m 0,1 km/h (0 Bft) O-NO 67 0 min 0,000 mm 0,0 UV-I 0 W/m 2,5 C 5,7 C 1,6 km/h (1 Bft)
01.10.2015 05:10 5,7 C 80 % 1030,6 hPa 0,0 l/m 0,9 km/h (0 Bft) NO 39 0 min 0,000 mm 0,0 UV-I 0 W/m 2,5 C 5,7 C 4,8 km/h (1 Bft)
01.10.2015 05:15 5,7 C 80 % 1030,6 hPa 0,0 l/m 1,0 km/h (0 Bft) NO 44 0 min 0,000 mm 0,0 UV-I 0 W/m 2,5 C 5,7 C 4,8 km/h (1 Bft)
01.10.2015 05:20 5,7 C 80 % 1030,6 hPa 0,0 l/m 0,4 km/h (0 Bft) NO 53 0 min 0,000 mm 0,0 UV-I 0 W/m 2,5 C 5,7 C 1,6 km/h (1 Bft)
01.10.2015 05:25 5,8 C 80 % 1030,6 hPa 0,0 l/m 1,8 km/h (1 Bft) O 83 0 min 0,000 mm 0,0 UV-I 0 W/m 2,6 C 5,8 C 4,8 km/h (1 Bft)
01.10.2015 05:30 5,8 C 80 % 1030,6 hPa 0,0 l/m 1,3 km/h (1 Bft) O-NO 59 0 min 0,000 mm 0,0 UV-I 0 W/m 2,6 C 5,8 C 4,8 km/h (1 Bft)
01.10.2015 05:35 5,8 C 80 % 1030,5 hPa 0,0 l/m 0,4 km/h (0 Bft) O-NO 64 0 min 0,000 mm 0,0 UV-I 0 W/m 2,6 C 5,8 C 3,2 km/h (1 Bft)
01.10.2015 05:40 5,8 C 80 % 1030,5 hPa 0,0 l/m 0,2 km/h (0 Bft) O 80 0 min 0,000 mm 0,0 UV-I 0 W/m 2,6 C 5,8 C 3,2 km/h (1 Bft)
01.10.2015 05:45 5,7 C 80 % 1030,4 hPa 0,0 l/m 0,8 km/h (0 Bft) O-NO 71 0 min 0,000 mm 0,0 UV-I 0 W/m 2,5 C 5,7 C 4,8 km/h (1 Bft)
01.10.2015 05:50 5,6 C 80 % 1030,4 hPa 0,0 l/m 0,3 km/h (0 Bft) O 86 0 min 0,000 mm 0,0 UV-I 0 W/m 2,4 C 5,6 C 4,8 km/h (1 Bft)
01.10.2015 05:55 5,4 C 80 % 1030,5 hPa 0,0 l/m 0,3 km/h (0 Bft) NO 53 0 min 0,000 mm 0,0 UV-I 0 W/m 2,2 C 5,4 C 3,2 km/h (1 Bft)
01.10.2015 06:00 5,3 C 80 % 1030,4 hPa 0,0 l/m 0,7 km/h (0 Bft) NO 42 0 min 0,000 mm 0,0 UV-I 0 W/m 2,1 C 5,3 C 4,8 km/h (1 Bft)
01.10.2015 06:05 5,3 C 80 % 1030,4 hPa 0,0 l/m 1,4 km/h (1 Bft) NO 51 0 min 0,000 mm 0,0 UV-I 0 W/m 2,1 C 5,3 C 4,8 km/h (1 Bft)
01.10.2015 06:10 5,3 C 80 % 1030,4 hPa 0,0 l/m 2,9 km/h (1 Bft) NO 54 0 min 0,000 mm 0,0 UV-I 0 W/m 2,1 C 5,3 C 8,0 km/h (2 Bft)
01.10.2015 06:15 5,4 C 80 % 1030,5 hPa 0,0 l/m 4,2 km/h (1 Bft) O-NO 67 0 min 0,000 mm 0,0 UV-I 0 W/m 2,2 C 5,4 C 8,0 km/h (2 Bft)
01.10.2015 06:20 5,5 C 80 % 1030,5 hPa 0,0 l/m 2,2 km/h (1 Bft) O-SO 108 0 min 0,000 mm 0,0 UV-I 0 W/m 2,3 C 5,5 C 6,4 km/h (2 Bft)
01.10.2015 06:25 5,6 C 80 % 1030,5 hPa 0,0 l/m 1,3 km/h (1 Bft) O-NO 65 0 min 0,000 mm 0,0 UV-I 0 W/m 2,4 C 5,6 C 6,4 km/h (2 Bft)
01.10.2015 06:30 5,4 C 80 % 1030,4 hPa 0,0 l/m 2,5 km/h (1 Bft) NO 51 0 min 0,000 mm 0,0 UV-I 0 W/m 2,2 C 5,4 C 8,0 km/h (2 Bft)
01.10.2015 06:35 5,4 C 80 % 1030,4 hPa 0,0 l/m 4,4 km/h (1 Bft) NO 36 0 min 0,000 mm 0,0 UV-I 0 W/m 2,2 C 5,4 C 8,0 km/h (2 Bft)
01.10.2015 06:40 5,4 C 80 % 1030,5 hPa 0,0 l/m 3,7 km/h (1 Bft) NO 54 0 min 0,000 mm 0,0 UV-I 0 W/m 2,2 C 5,4 C 8,0 km/h (2 Bft)
01.10.2015 06:45 5,4 C 80 % 1030,5 hPa 0,0 l/m 4,4 km/h (1 Bft) O-NO 59 0 min 0,000 mm 0,0 UV-I 0 W/m 2,2 C 5,4 C 9,7 km/h (2 Bft)
01.10.2015 06:50 5,5 C 80 % 1030,5 hPa 0,0 l/m 3,5 km/h (1 Bft) O-NO 57 0 min 0,000 mm 0,0 UV-I 0 W/m 2,3 C 5,5 C 9,7 km/h (2 Bft)
01.10.2015 06:55 5,5 C 80 % 1030,5 hPa 0,0 l/m 2,8 km/h (1 Bft) NO 35 0 min 0,000 mm 0,0 UV-I 0 W/m 2,3 C 5,5 C 8,0 km/h (2 Bft)
01.10.2015 07:00 5,4 C 80 % 1030,5 hPa 0,0 l/m 2,5 km/h (1 Bft) O 81 0 min 0,025 mm 0,0 UV-I 0 W/m 2,2 C 5,4 C 6,4 km/h (2 Bft)
01.10.2015 07:05 5,3 C 80 % 1030,5 hPa 0,0 l/m 2,8 km/h (1 Bft) NO 49 0 min 0,000 mm 0,0 UV-I 0 W/m 2,1 C 5,3 C 6,4 km/h (2 Bft)
01.10.2015 07:10 5,3 C 80 % 1030,4 hPa 0,0 l/m 2,6 km/h (1 Bft) O-NO 59 0 min 0,000 mm 0,0 UV-I 0 W/m 2,1 C 5,3 C 8,0 km/h (2 Bft)
01.10.2015 07:15 5,2 C 80 % 1030,5 hPa 0,0 l/m 2,6 km/h (1 Bft) NO 43 0 min 0,000 mm 0,0 UV-I 0 W/m 2,0 C 5,2 C 8,0 km/h (2 Bft)
01.10.2015 07:20 5,2 C 80 % 1030,5 hPa 0,0 l/m 3,4 km/h (1 Bft) NO 43 0 min 0,000 mm 0,0 UV-I 0 W/m 2,0 C 5,2 C 9,7 km/h (2 Bft)
01.10.2015 07:25 5,2 C 80 % 1030,5 hPa 0,0 l/m 3,6 km/h (1 Bft) O-NO 59 0 min 0,000 mm 0,0 UV-I 0 W/m 2,0 C 5,2 C 8,0 km/h (2 Bft)
01.10.2015 07:30 5,2 C 80 % 1030,6 hPa 0,0 l/m 2,2 km/h (1 Bft) NO 44 0 min 0,000 mm 0,0 UV-I 4 W/m 2,0 C 5,2 C 8,0 km/h (2 Bft)
01.10.2015 07:35 5,2 C 80 % 1030,5 hPa 0,0 l/m 1,9 km/h (1 Bft) O-NO 62 0 min 0,000 mm 0,0 UV-I 7 W/m 2,0 C 5,2 C 4,8 km/h (1 Bft)
01.10.2015 07:40 5,1 C 80 % 1030,6 hPa 0,0 l/m 2,1 km/h (1 Bft) O-NO 57 0 min 0,000 mm 0,0 UV-I 10 W/m 1,9 C 5,1 C 4,8 km/h (1 Bft)
01.10.2015 07:45 5,1 C 80 % 1030,5 hPa 0,0 l/m 0,5 km/h (0 Bft) O-NO 57 0 min 0,000 mm 0,0 UV-I 12 W/m 1,9 C 5,1 C 3,2 km/h (1 Bft)
01.10.2015 07:50 5,1 C 80 % 1030,4 hPa 0,0 l/m 0,0 km/h (0 Bft) O-NO 57 0 min 0,000 mm 0,0 UV-I 17 W/m 1,9 C 5,1 C 0,0 km/h (0 Bft)
01.10.2015 07:55 5,1 C 80 % 1030,4 hPa 0,0 l/m 0,2 km/h (0 Bft) O-NO 71 0 min 0,000 mm 0,0 UV-I 24 W/m 1,9 C 5,1 C 4,8 km/h (1 Bft)
01.10.2015 08:00 5,3 C 80 % 1030,5 hPa 0,0 l/m 0,6 km/h (0 Bft) O-NO 57 0 min 0,000 mm 0,0 UV-I 33 W/m 2,1 C 5,3 C 4,8 km/h (1 Bft)
01.10.2015 08:05 5,5 C 80 % 1030,5 hPa 0,0 l/m 0,0 km/h (0 Bft) O-NO 69 0 min 0,000 mm 0,0 UV-I 43 W/m 2,3 C 5,5 C 0,0 km/h (0 Bft)
01.10.2015 08:10 5,6 C 80 % 1030,5 hPa 0,0 l/m 0,1 km/h (0 Bft) O 84 0 min 0,000 mm 0,0 UV-I 53 W/m 2,4 C 5,6 C 1,6 km/h (1 Bft)
01.10.2015 08:15 5,6 C 80 % 1030,5 hPa 0,0 l/m 0,0 km/h (0 Bft) N-NO 22 5 min 0,000 mm 0,0 UV-I 66 W/m 2,4 C 5,6 C 0,0 km/h (0 Bft)
01.10.2015 08:20 5,8 C 80 % 1030,5 hPa 0,0 l/m 0,0 km/h (0 Bft) NO 42 5 min 0,000 mm 0,0 UV-I 78 W/m 2,6 C 5,8 C 0,0 km/h (0 Bft)
01.10.2015 08:25 6,2 C 80 % 1030,6 hPa 0,0 l/m 0,1 km/h (0 Bft) O 89 5 min 0,000 mm 0,0 UV-I 91 W/m 3,0 C 6,2 C 3,2 km/h (1 Bft)
01.10.2015 08:30 6,3 C 80 % 1030,6 hPa 0,0 l/m 0,0 km/h (0 Bft) O-NO 65 5 min 0,000 mm 0,0 UV-I 103 W/m 3,1 C 6,3 C 0,0 km/h (0 Bft)
01.10.2015 08:35 6,6 C 80 % 1030,5 hPa 0,0 l/m 0,2 km/h (0 Bft) O-NO 61 5 min 0,000 mm 0,0 UV-I 116 W/m 3,4 C 6,6 C 4,8 km/h (1 Bft)
01.10.2015 08:40 6,9 C 80 % 1030,4 hPa 0,0 l/m 0,2 km/h (0 Bft) O 97 5 min 0,000 mm 0,0 UV-I 128 W/m 3,7 C 6,9 C 4,8 km/h (1 Bft)
01.10.2015 08:45 7,4 C 79 % 1030,5 hPa 0,0 l/m 0,9 km/h (0 Bft) NO 55 5 min 0,000 mm 0,0 UV-I 139 W/m 4,0 C 7,4 C 6,4 km/h (2 Bft)
01.10.2015 08:50 7,9 C 78 % 1030,5 hPa 0,0 l/m 2,6 km/h (1 Bft) O-NO 65 5 min 0,000 mm 0,0 UV-I 151 W/m 4,3 C 7,9 C 9,7 km/h (2 Bft)
01.10.2015 08:55 8,3 C 77 % 1030,5 hPa 0,0 l/m 1,3 km/h (1 Bft) O 96 5 min 0,000 mm 0,4 UV-I 164 W/m 4,5 C 8,3 C 11,3 km/h (2 Bft)
01.10.2015 09:00 8,8 C 74 % 1030,6 hPa 0,0 l/m 2,1 km/h (1 Bft) NO 44 5 min 0,051 mm 0,5 UV-I 176 W/m 4,4 C 8,8 C 12,9 km/h (3 Bft)
01.10.2015 09:05 9,2 C 73 % 1030,7 hPa 0,0 l/m 4,6 km/h (1 Bft) NO 54 5 min 0,000 mm 0,5 UV-I 188 W/m 4,6 C 9,2 C 12,9 km/h (3 Bft)
01.10.2015 09:10 9,3 C 72 % 1030,6 hPa 0,0 l/m 6,4 km/h (2 Bft) O-NO 67 5 min 0,000 mm 0,6 UV-I 201 W/m 4,5 C 9,3 C 16,1 km/h (3 Bft)
01.10.2015 09:15 9,4 C 71 % 1030,5 hPa 0,0 l/m 8,4 km/h (2 Bft) O-NO 70 5 min 0,000 mm 0,6 UV-I 219 W/m 4,4 C 7,9 C 14,5 km/h (3 Bft)
01.10.2015 09:20 9,7 C 71 % 1030,5 hPa 0,0 l/m 7,8 km/h (2 Bft) O-NO 59 5 min 0,000 mm 0,7 UV-I 226 W/m 4,7 C 8,7 C 19,3 km/h (3 Bft)
01.10.2015 09:25 9,9 C 69 % 1030,5 hPa 0,0 l/m 8,1 km/h (2 Bft) O-NO 58 5 min 0,000 mm 0,7 UV-I 239 W/m 4,5 C 8,7 C 17,7 km/h (3 Bft)
01.10.2015 09:30 10,3 C 69 % 1030,6 hPa 0,0 l/m 4,6 km/h (1 Bft) O-NO 76 5 min 0,000 mm 0,8 UV-I 251 W/m 4,9 C 10,3 C 16,1 km/h (3 Bft)
01.10.2015 09:35 10,5 C 68 % 1030,5 hPa 0,0 l/m 3,6 km/h (1 Bft) O-NO 68 5 min 0,000 mm 0,8 UV-I 263 W/m 4,8 C 10,5 C 11,3 km/h (2 Bft)
01.10.2015 09:40 10,7 C 67 % 1030,6 hPa 0,0 l/m 6,0 km/h (2 Bft) O 88 5 min 0,000 mm 0,9 UV-I 276 W/m 4,8 C 10,7 C 16,1 km/h (3 Bft)
01.10.2015 09:45 11,0 C 65 % 1030,6 hPa 0,0 l/m 9,4 km/h (2 Bft) O-NO 65 5 min 0,000 mm 0,9 UV-I 288 W/m 4,7 C 9,0 C 22,5 km/h (4 Bft)
01.10.2015 09:50 11,3 C 66 % 1030,6 hPa 0,0 l/m 3,6 km/h (1 Bft) N-NO 29 5 min 0,000 mm 1,0 UV-I 300 W/m 5,2 C 11,3 C 12,9 km/h (3 Bft)
01.10.2015 09:55 11,4 C 63 % 1030,6 hPa 0,0 l/m 9,5 km/h (2 Bft) O-NO 77 5 min 0,000 mm 1,1 UV-I 312 W/m 4,6 C 9,4 C 25,7 km/h (4 Bft)
01.10.2015 10:00 11,3 C 63 % 1030,6 hPa 0,0 l/m 6,9 km/h (2 Bft) O-NO 63 5 min 0,152 mm 1,1 UV-I 325 W/m 4,5 C 11,0 C 20,9 km/h (4 Bft)
01.10.2015 10:05 11,6 C 63 % 1030,5 hPa 0,0 l/m 5,5 km/h (1 Bft) N-NO 30 5 min 0,000 mm 1,2 UV-I 338 W/m 4,8 C 11,6 C 17,7 km/h (3 Bft)
01.10.2015 10:10 11,7 C 62 % 1030,5 hPa 0,0 l/m 7,6 km/h (2 Bft) NO 48 5 min 0,000 mm 1,3 UV-I 350 W/m 4,7 C 10,9 C 19,3 km/h (3 Bft)
01.10.2015 10:15 11,9 C 61 % 1030,5 hPa 0,0 l/m 9,1 km/h (2 Bft) NO 46 5 min 0,000 mm 1,3 UV-I 361 W/m 4,6 C 10,2 C 25,7 km/h (4 Bft)
01.10.2015 10:20 12,2 C 61 % 1030,6 hPa 0,0 l/m 8,3 km/h (2 Bft) N-NO 15 5 min 0,000 mm 1,4 UV-I 373 W/m 4,9 C 11,0 C 19,3 km/h (3 Bft)
01.10.2015 10:25 12,2 C 59 % 1030,5 hPa 0,0 l/m 5,8 km/h (2 Bft) NO 37 5 min 0,000 mm 1,5 UV-I 386 W/m 4,4 C 12,2 C 22,5 km/h (4 Bft)
01.10.2015 10:30 12,2 C 58 % 1030,3 hPa 0,0 l/m 10,8 km/h (2 Bft) N-NO 22 5 min 0,000 mm 1,5 UV-I 397 W/m 4,2 C 9,6 C 29,0 km/h (5 Bft)
01.10.2015 10:35 12,3 C 56 % 1030,2 hPa 0,0 l/m 10,0 km/h (2 Bft) O-SO 105 5 min 0,000 mm 1,6 UV-I 408 W/m 3,8 C 10,1 C 24,1 km/h (4 Bft)
01.10.2015 10:40 12,3 C 56 % 1030,2 hPa 0,0 l/m 11,2 km/h (2 Bft) N-NO 33 5 min 0,000 mm 1,7 UV-I 419 W/m 3,8 C 9,5 C 32,2 km/h (5 Bft)
01.10.2015 10:45 12,3 C 57 % 1030,3 hPa 0,0 l/m 10,4 km/h (2 Bft) O-NO 70 5 min 0,000 mm 1,8 UV-I 430 W/m 4,0 C 9,9 C 24,1 km/h (4 Bft)
01.10.2015 10:50 12,6 C 56 % 1030,2 hPa 0,0 l/m 8,3 km/h (2 Bft) O-NO 69 5 min 0,000 mm 1,8 UV-I 441 W/m 4,1 C 11,4 C 24,1 km/h (4 Bft)
01.10.2015 10:55 12,4 C 56 % 1030,2 hPa 0,0 l/m 10,8 km/h (2 Bft) N-NO 23 5 min 0,000 mm 1,9 UV-I 451 W/m 3,9 C 9,8 C 24,1 km/h (4 Bft)
01.10.2015 11:00 12,6 C 55 % 1030,1 hPa 0,0 l/m 11,3 km/h (2 Bft) O 80 5 min 0,000 mm 2,0 UV-I 459 W/m 3,8 C 9,8 C 20,9 km/h (4 Bft)
01.10.2015 11:05 12,7 C 55 % 1030,1 hPa 0,0 l/m 9,6 km/h (2 Bft) O-NO 69 5 min 0,229 mm 2,1 UV-I 469 W/m 3,9 C 10,8 C 19,3 km/h (3 Bft)
01.10.2015 11:10 13,1 C 55 % 1030,1 hPa 0,0 l/m 12,0 km/h (2 Bft) N-NO 27 5 min 0,000 mm 2,2 UV-I 478 W/m 4,3 C 10,1 C 29,0 km/h (5 Bft)
01.10.2015 11:15 13,3 C 54 % 1030,2 hPa 0,0 l/m 8,9 km/h (2 Bft) O 88 5 min 0,000 mm 2,2 UV-I 486 W/m 4,2 C 11,8 C 22,5 km/h (4 Bft)
01.10.2015 11:20 12,9 C 54 % 1030,3 hPa 0,0 l/m 10,6 km/h (2 Bft) O-SO 110 5 min 0,000 mm 2,3 UV-I 494 W/m 3,8 C 10,5 C 22,5 km/h (4 Bft)
01.10.2015 11:25 13,2 C 54 % 1030,3 hPa 0,0 l/m 6,8 km/h (2 Bft) O-NO 74 5 min 0,000 mm 2,3 UV-I 502 W/m 4,1 C 13,0 C 16,1 km/h (3 Bft)
01.10.2015 11:30 13,4 C 54 % 1030,3 hPa 0,0 l/m 13,1 km/h (3 Bft) O-SO 109 5 min 0,000 mm 2,4 UV-I 510 W/m 4,3 C 10,0 C 27,4 km/h (4 Bft)
01.10.2015 11:35 13,6 C 53 % 1030,3 hPa 0,0 l/m 7,2 km/h (2 Bft) NO 49 5 min 0,000 mm 2,5 UV-I 516 W/m 4,2 C 13,1 C 20,9 km/h (4 Bft)
01.10.2015 11:40 13,7 C 51 % 1030,3 hPa 0,0 l/m 9,0 km/h (2 Bft) NO 44 5 min 0,000 mm 2,5 UV-I 524 W/m 3,8 C 12,2 C 19,3 km/h (3 Bft)
01.10.2015 11:45 13,7 C 54 % 1030,3 hPa 0,0 l/m 5,4 km/h (1 Bft) NO 51 5 min 0,000 mm 2,6 UV-I 531 W/m 4,6 C 13,7 C 20,9 km/h (4 Bft)
01.10.2015 11:50 13,9 C 51 % 1030,3 hPa 0,0 l/m 9,5 km/h (2 Bft) O-NO 62 5 min 0,000 mm 2,6 UV-I 536 W/m 3,9 C 12,1 C 25,7 km/h (4 Bft)
01.10.2015 11:55 14,1 C 51 % 1030,3 hPa 0,0 l/m 12,4 km/h (3 Bft) NO 40 5 min 0,000 mm 2,7 UV-I 545 W/m 4,1 C 11,1 C 22,5 km/h (4 Bft)
01.10.2015 12:00 13,8 C 52 % 1030,3 hPa 0,0 l/m 9,3 km/h (2 Bft) N-NO 29 5 min 0,305 mm 2,8 UV-I 550 W/m 4,1 C 12,1 C 20,9 km/h (4 Bft)
01.10.2015 12:05 14,2 C 51 % 1030,2 hPa 0,0 l/m 5,7 km/h (1 Bft) O-NO 59 5 min 0,000 mm 2,8 UV-I 558 W/m 4,2 C 14,2 C 19,3 km/h (3 Bft)
01.10.2015 12:10 13,9 C 51 % 1030,2 hPa 0,0 l/m 13,9 km/h (3 Bft) O-NO 61 5 min 0,000 mm 2,9 UV-I 564 W/m 3,9 C 10,3 C 27,4 km/h (4 Bft)
01.10.2015 12:15 14,2 C 53 % 1030,2 hPa 0,0 l/m 6,7 km/h (2 Bft) NO 36 5 min 0,000 mm 2,9 UV-I 568 W/m 4,8 C 14,0 C 19,3 km/h (3 Bft)
01.10.2015 12:20 14,4 C 50 % 1030,1 hPa 0,0 l/m 7,8 km/h (2 Bft) O 97 5 min 0,000 mm 3,0 UV-I 574 W/m 4,1 C 13,6 C 25,7 km/h (4 Bft)
01.10.2015 12:25 14,2 C 51 % 1030,1 hPa 0,0 l/m 8,4 km/h (2 Bft) N-NO 20 5 min 0,000 mm 3,0 UV-I 578 W/m 4,2 C 13,0 C 19,3 km/h (3 Bft)
01.10.2015 12:30 14,8 C 50 % 1030,1 hPa 0,0 l/m 4,3 km/h (1 Bft) O-NO 65 5 min 0,000 mm 3,1 UV-I 583 W/m 4,5 C 14,8 C 19,3 km/h (3 Bft)
01.10.2015 12:35 14,7 C 49 % 1030,2 hPa 0,0 l/m 10,4 km/h (2 Bft) NO 40 5 min 0,000 mm 3,1 UV-I 591 W/m 4,1 C 12,6 C 29,0 km/h (5 Bft)
01.10.2015 12:40 14,4 C 52 % 1030,2 hPa 0,0 l/m 8,7 km/h (2 Bft) N-NO 20 5 min 0,000 mm 3,1 UV-I 591 W/m 4,7 C 13,1 C 22,5 km/h (4 Bft)
01.10.2015 12:45 14,4 C 50 % 1030,1 hPa 0,0 l/m 11,6 km/h (2 Bft) NO 52 5 min 0,000 mm 3,1 UV-I 591 W/m 4,1 C 11,7 C 20,9 km/h (4 Bft)
01.10.2015 12:50 14,2 C 51 % 1030,1 hPa 0,0 l/m 12,7 km/h (3 Bft) O-NO 63 5 min 0,000 mm 3,2 UV-I 595 W/m 4,2 C 11,1 C 22,5 km/h (4 Bft)
01.10.2015 12:55 14,6 C 50 % 1030,1 hPa 0,0 l/m 4,9 km/h (1 Bft) N 10 5 min 0,000 mm 3,2 UV-I 597 W/m 4,3 C 14,6 C 27,4 km/h (4 Bft)
01.10.2015 13:00 14,5 C 50 % 1030,1 hPa 0,0 l/m 12,8 km/h (3 Bft) NO 36 5 min 0,000 mm 3,2 UV-I 597 W/m 4,2 C 11,4 C 27,4 km/h (4 Bft)
01.10.2015 13:05 14,8 C 50 % 1030,1 hPa 0,0 l/m 4,4 km/h (1 Bft) O 84 5 min 0,355 mm 3,2 UV-I 600 W/m 4,5 C 14,8 C 12,9 km/h (3 Bft)
01.10.2015 13:10 14,9 C 49 % 1030,1 hPa 0,0 l/m 8,0 km/h (2 Bft) O-NO 62 5 min 0,000 mm 3,2 UV-I 603 W/m 4,3 C 14,0 C 20,9 km/h (4 Bft)
01.10.2015 13:15 14,8 C 51 % 1029,9 hPa 0,0 l/m 9,7 km/h (2 Bft) NO 49 5 min 0,000 mm 3,2 UV-I 605 W/m 4,8 C 13,0 C 25,7 km/h (4 Bft)
01.10.2015 13:20 15,4 C 50 % 1029,9 hPa 0,0 l/m 7,7 km/h (2 Bft) N-NO 26 5 min 0,000 mm 3,2 UV-I 603 W/m 5,0 C 14,7 C 20,9 km/h (4 Bft)
01.10.2015 13:25 15,2 C 51 % 1029,9 hPa 0,0 l/m 6,2 km/h (2 Bft) NW 319 5 min 0,000 mm 3,2 UV-I 605 W/m 5,1 C 15,2 C 20,9 km/h (4 Bft)
01.10.2015 13:30 15,7 C 51 % 1029,8 hPa 0,0 l/m 3,3 km/h (1 Bft) NO 54 5 min 0,000 mm 3,2 UV-I 603 W/m 5,6 C 15,7 C 16,1 km/h (3 Bft)
01.10.2015 13:35 15,6 C 48 % 1029,8 hPa 0,0 l/m 6,2 km/h (2 Bft) N 5 5 min 0,000 mm 3,2 UV-I 603 W/m 4,6 C 15,6 C 19,3 km/h (3 Bft)
01.10.2015 13:40 15,1 C 50 % 1029,7 hPa 0,0 l/m 11,4 km/h (2 Bft) NO 55 5 min 0,000 mm 3,2 UV-I 604 W/m 4,8 C 12,6 C 32,2 km/h (5 Bft)
01.10.2015 13:45 15,3 C 55 % 1029,6 hPa 0,0 l/m 6,8 km/h (2 Bft) O-NO 67 5 min 0,000 mm 3,1 UV-I 603 W/m 6,3 C 15,1 C 20,9 km/h (4 Bft)
01.10.2015 13:50 15,9 C 49 % 1029,7 hPa 0,0 l/m 3,3 km/h (1 Bft) N-NO 25 5 min 0,000 mm 3,1 UV-I 602 W/m 5,2 C 15,9 C 24,1 km/h (4 Bft)
01.10.2015 13:55 15,4 C 52 % 1029,7 hPa 0,0 l/m 7,8 km/h (2 Bft) NO 38 5 min 0,000 mm 3,1 UV-I 597 W/m 5,6 C 14,6 C 19,3 km/h (3 Bft)
01.10.2015 14:00 16,0 C 50 % 1029,6 hPa 0,0 l/m 3,8 km/h (1 Bft) N-NW 348 5 min 0,000 mm 3,0 UV-I 591 W/m 5,6 C 16,0 C 24,1 km/h (4 Bft)
01.10.2015 14:05 16,1 C 48 % 1029,6 hPa 0,0 l/m 3,5 km/h (1 Bft) N 360 5 min 0,356 mm 3,0 UV-I 590 W/m 5,1 C 16,1 C 20,9 km/h (4 Bft)
01.10.2015 14:10 16,6 C 48 % 1029,6 hPa 0,0 l/m 0,4 km/h (0 Bft) O-NO 59 5 min 0,000 mm 3,0 UV-I 589 W/m 5,5 C 16,6 C 4,8 km/h (1 Bft)
01.10.2015 14:15 16,8 C 47 % 1029,5 hPa 0,0 l/m 2,0 km/h (1 Bft) N-NO 32 5 min 0,000 mm 2,9 UV-I 585 W/m 5,4 C 16,8 C 17,7 km/h (3 Bft)
01.10.2015 14:20 16,6 C 47 % 1029,5 hPa 0,0 l/m 4,5 km/h (1 Bft) NO 56 5 min 0,000 mm 2,9 UV-I 586 W/m 5,2 C 16,6 C 22,5 km/h (4 Bft)
01.10.2015 14:25 16,2 C 46 % 1029,3 hPa 0,0 l/m 8,2 km/h (2 Bft) NO 53 5 min 0,000 mm 2,8 UV-I 584 W/m 4,6 C 15,3 C 22,5 km/h (4 Bft)
01.10.2015 14:30 16,2 C 48 % 1029,3 hPa 0,0 l/m 4,4 km/h (1 Bft) NO 48 5 min 0,000 mm 2,8 UV-I 579 W/m 5,2 C 16,2 C 20,9 km/h (4 Bft)
01.10.2015 14:35 16,1 C 45 % 1029,3 hPa 0,0 l/m 11,0 km/h (2 Bft) O-NO 66 5 min 0,000 mm 2,8 UV-I 575 W/m 4,2 C 13,9 C 33,8 km/h (5 Bft)
01.10.2015 14:40 15,5 C 46 % 1029,3 hPa 0,0 l/m 11,0 km/h (2 Bft) N-NO 32 5 min 0,000 mm 2,7 UV-I 570 W/m 3,9 C 13,2 C 30,6 km/h (5 Bft)
01.10.2015 14:45 15,8 C 47 % 1029,2 hPa 0,0 l/m 3,4 km/h (1 Bft) O 81 5 min 0,000 mm 2,6 UV-I 565 W/m 4,5 C 15,8 C 16,1 km/h (3 Bft)
01.10.2015 14:50 16,2 C 45 % 1029,0 hPa 0,0 l/m 4,4 km/h (1 Bft) NO 54 5 min 0,000 mm 2,6 UV-I 562 W/m 4,3 C 16,2 C 16,1 km/h (3 Bft)
01.10.2015 14:55 15,9 C 45 % 1029,0 hPa 0,0 l/m 11,3 km/h (2 Bft) O 84 5 min 0,000 mm 2,5 UV-I 556 W/m 4,0 C 13,6 C 27,4 km/h (4 Bft)
01.10.2015 15:00 15,6 C 46 % 1028,9 hPa 0,0 l/m 12,0 km/h (2 Bft) O-NO 65 5 min 0,000 mm 2,5 UV-I 553 W/m 4,0 C 13,0 C 25,7 km/h (4 Bft)
01.10.2015 15:05 15,7 C 45 % 1028,9 hPa 0,0 l/m 8,6 km/h (2 Bft) O-NO 71 5 min 0,355 mm 2,4 UV-I 547 W/m 3,8 C 14,5 C 22,5 km/h (4 Bft)
01.10.2015 15:10 15,8 C 46 % 1028,9 hPa 0,0 l/m 11,4 km/h (2 Bft) NO 42 5 min 0,000 mm 2,3 UV-I 538 W/m 4,2 C 13,4 C 24,1 km/h (4 Bft)
01.10.2015 15:15 16,1 C 45 % 1028,9 hPa 0,0 l/m 5,6 km/h (1 Bft) NO 34 5 min 0,000 mm 2,3 UV-I 531 W/m 4,2 C 16,1 C 22,5 km/h (4 Bft)
01.10.2015 15:20 16,1 C 46 % 1028,8 hPa 0,0 l/m 8,3 km/h (2 Bft) NO 45 5 min 0,000 mm 2,2 UV-I 522 W/m 4,5 C 15,1 C 17,7 km/h (3 Bft)
01.10.2015 15:25 16,1 C 46 % 1028,8 hPa 0,0 l/m 9,6 km/h (2 Bft) NO 56 5 min 0,000 mm 2,1 UV-I 515 W/m 4,5 C 14,5 C 24,1 km/h (4 Bft)
01.10.2015 15:30 16,1 C 44 % 1028,8 hPa 0,0 l/m 9,3 km/h (2 Bft) NO 38 5 min 0,000 mm 2,1 UV-I 507 W/m 3,8 C 14,6 C 25,7 km/h (4 Bft)
01.10.2015 15:35 16,2 C 47 % 1028,8 hPa 0,0 l/m 5,4 km/h (1 Bft) O-NO 63 5 min 0,000 mm 2,0 UV-I 497 W/m 4,9 C 16,2 C 22,5 km/h (4 Bft)
01.10.2015 15:40 16,1 C 47 % 1028,9 hPa 0,0 l/m 8,9 km/h (2 Bft) O-NO 61 5 min 0,000 mm 1,9 UV-I 488 W/m 4,8 C 14,8 C 20,9 km/h (4 Bft)
01.10.2015 15:45 16,1 C 48 % 1028,9 hPa 0,0 l/m 7,5 km/h (2 Bft) O-NO 67 5 min 0,000 mm 1,8 UV-I 477 W/m 5,1 C 15,5 C 24,1 km/h (4 Bft)
01.10.2015 15:50 15,8 C 47 % 1028,8 hPa 0,0 l/m 11,4 km/h (2 Bft) N-NO 14 5 min 0,000 mm 1,7 UV-I 466 W/m 4,5 C 13,4 C 19,3 km/h (3 Bft)
01.10.2015 15:55 15,7 C 46 % 1028,9 hPa 0,0 l/m 11,3 km/h (2 Bft) O 94 5 min 0,000 mm 1,7 UV-I 457 W/m 4,1 C 13,3 C 22,5 km/h (4 Bft)
01.10.2015 16:00 15,7 C 48 % 1028,8 hPa 0,0 l/m 10,9 km/h (2 Bft) O-NO 61 5 min 0,000 mm 1,6 UV-I 451 W/m 4,7 C 13,5 C 24,1 km/h (4 Bft)
01.10.2015 16:05 15,7 C 46 % 1028,7 hPa 0,0 l/m 10,1 km/h (2 Bft) O-NO 66 5 min 0,331 mm 1,5 UV-I 443 W/m 4,1 C 13,8 C 29,0 km/h (5 Bft)
01.10.2015 16:10 15,6 C 46 % 1028,6 hPa 0,0 l/m 12,6 km/h (3 Bft) NO 44 5 min 0,000 mm 1,5 UV-I 429 W/m 4,0 C 12,7 C 27,4 km/h (4 Bft)
01.10.2015 16:15 15,4 C 46 % 1028,7 hPa 0,0 l/m 14,0 km/h (3 Bft) NO 49 5 min 0,000 mm 1,4 UV-I 419 W/m 3,8 C 12,0 C 24,1 km/h (4 Bft)
01.10.2015 16:20 15,4 C 47 % 1028,7 hPa 0,0 l/m 7,8 km/h (2 Bft) O-NO 58 5 min 0,000 mm 1,3 UV-I 411 W/m 4,1 C 14,6 C 22,5 km/h (4 Bft)
01.10.2015 16:25 15,8 C 46 % 1028,6 hPa 0,0 l/m 7,1 km/h (2 Bft) NO 48 5 min 0,000 mm 1,3 UV-I 400 W/m 4,2 C 15,4 C 22,5 km/h (4 Bft)
01.10.2015 16:30 15,6 C 45 % 1028,6 hPa 0,0 l/m 11,9 km/h (2 Bft) NO 47 5 min 0,000 mm 1,2 UV-I 389 W/m 3,7 C 13,0 C 24,1 km/h (4 Bft)
01.10.2015 16:35 15,3 C 46 % 1028,5 hPa 0,0 l/m 10,7 km/h (2 Bft) O-SO 104 5 min 0,000 mm 1,1 UV-I 378 W/m 3,8 C 13,1 C 17,7 km/h (3 Bft)
01.10.2015 16:40 15,3 C 47 % 1028,4 hPa 0,0 l/m 9,9 km/h (2 Bft) O-NO 57 5 min 0,000 mm 1,1 UV-I 367 W/m 4,1 C 13,5 C 19,3 km/h (3 Bft)
01.10.2015 16:45 15,3 C 46 % 1028,5 hPa 0,0 l/m 12,2 km/h (2 Bft) NO 45 5 min 0,000 mm 1,0 UV-I 351 W/m 3,8 C 12,5 C 22,5 km/h (4 Bft)
01.10.2015 16:50 15,3 C 47 % 1028,5 hPa 0,0 l/m 12,0 km/h (2 Bft) NO 53 5 min 0,000 mm 0,9 UV-I 338 W/m 4,1 C 12,6 C 20,9 km/h (4 Bft)
01.10.2015 16:55 15,7 C 47 % 1028,4 hPa 0,0 l/m 1,7 km/h (1 Bft) NO 38 5 min 0,000 mm 0,9 UV-I 327 W/m 4,4 C 15,7 C 11,3 km/h (2 Bft)
01.10.2015 17:00 15,5 C 46 % 1028,3 hPa 0,0 l/m 8,7 km/h (2 Bft) O-NO 64 5 min 0,000 mm 0,8 UV-I 317 W/m 3,9 C 14,3 C 24,1 km/h (4 Bft)
01.10.2015 17:05 15,4 C 47 % 1028,3 hPa 0,0 l/m 9,7 km/h (2 Bft) O-NO 76 5 min 0,279 mm 0,8 UV-I 305 W/m 4,1 C 13,7 C 20,9 km/h (4 Bft)
01.10.2015 17:10 15,4 C 46 % 1028,3 hPa 0,0 l/m 7,6 km/h (2 Bft) O-NO 57 5 min 0,000 mm 0,7 UV-I 294 W/m 3,8 C 14,7 C 19,3 km/h (3 Bft)
01.10.2015 17:15 15,3 C 47 % 1028,4 hPa 0,0 l/m 11,4 km/h (2 Bft) NO 42 5 min 0,000 mm 0,7 UV-I 279 W/m 4,1 C 12,9 C 24,1 km/h (4 Bft)
01.10.2015 17:20 15,2 C 47 % 1028,4 hPa 0,0 l/m 8,5 km/h (2 Bft) O 79 5 min 0,000 mm 0,6 UV-I 266 W/m 4,0 C 14,1 C 16,1 km/h (3 Bft)
01.10.2015 17:25 15,1 C 49 % 1028,4 hPa 0,0 l/m 6,7 km/h (2 Bft) NO 47 5 min 0,000 mm 0,6 UV-I 252 W/m 4,5 C 14,9 C 20,9 km/h (4 Bft)
01.10.2015 17:30 15,3 C 48 % 1028,3 hPa 0,0 l/m 5,9 km/h (2 Bft) O-NO 71 5 min 0,000 mm 0,5 UV-I 236 W/m 4,4 C 15,3 C 16,1 km/h (3 Bft)
01.10.2015 17:35 15,1 C 48 % 1028,3 hPa 0,0 l/m 10,0 km/h (2 Bft) O-NO 71 5 min 0,000 mm 0,5 UV-I 224 W/m 4,2 C 13,2 C 20,9 km/h (4 Bft)
01.10.2015 17:40 15,3 C 49 % 1028,3 hPa 0,0 l/m 0,1 km/h (0 Bft) O-NO 60 5 min 0,000 mm 0,5 UV-I 207 W/m 4,7 C 15,3 C 3,2 km/h (1 Bft)
01.10.2015 17:45 15,2 C 49 % 1028,3 hPa 0,0 l/m 7,2 km/h (2 Bft) O-NO 67 5 min 0,000 mm 0,0 UV-I 189 W/m 4,6 C 14,8 C 19,3 km/h (3 Bft)
01.10.2015 17:50 15,0 C 49 % 1028,2 hPa 0,0 l/m 5,8 km/h (2 Bft) O-NO 74 5 min 0,000 mm 0,0 UV-I 173 W/m 4,4 C 15,0 C 19,3 km/h (3 Bft)
01.10.2015 17:55 15,0 C 49 % 1028,1 hPa 0,0 l/m 6,1 km/h (2 Bft) N-NO 15 5 min 0,000 mm 0,0 UV-I 157 W/m 4,4 C 15,0 C 19,3 km/h (3 Bft)
01.10.2015 18:00 14,9 C 49 % 1028,3 hPa 0,0 l/m 5,0 km/h (1 Bft) O-NO 67 5 min 0,000 mm 0,0 UV-I 142 W/m 4,3 C 14,9 C 14,5 km/h (3 Bft)
01.10.2015 18:05 14,7 C 50 % 1028,3 hPa 0,0 l/m 5,3 km/h (1 Bft) NO 54 5 min 0,178 mm 0,0 UV-I 105 W/m 4,4 C 14,7 C 16,1 km/h (3 Bft)
01.10.2015 18:10 14,6 C 50 % 1028,3 hPa 0,0 l/m 2,9 km/h (1 Bft) NO 50 5 min 0,000 mm 0,0 UV-I 99 W/m 4,3 C 14,6 C 19,3 km/h (3 Bft)
01.10.2015 18:15 14,4 C 50 % 1028,4 hPa 0,0 l/m 6,1 km/h (2 Bft) NO 43 5 min 0,000 mm 0,0 UV-I 97 W/m 4,1 C 14,4 C 16,1 km/h (3 Bft)
01.10.2015 18:20 14,3 C 51 % 1028,4 hPa 0,0 l/m 4,8 km/h (1 Bft) O-NO 63 5 min 0,000 mm 0,0 UV-I 84 W/m 4,3 C 14,3 C 19,3 km/h (3 Bft)
01.10.2015 18:25 14,1 C 52 % 1028,3 hPa 0,0 l/m 2,8 km/h (1 Bft) O-NO 57 5 min 0,000 mm 0,0 UV-I 71 W/m 4,4 C 14,1 C 16,1 km/h (3 Bft)
01.10.2015 18:30 14,1 C 52 % 1028,3 hPa 0,0 l/m 0,7 km/h (0 Bft) N-NO 18 5 min 0,000 mm 0,0 UV-I 60 W/m 4,4 C 14,1 C 9,7 km/h (2 Bft)
01.10.2015 18:35 14,2 C 54 % 1028,3 hPa 0,0 l/m 0,0 km/h (0 Bft) N-NO 18 5 min 0,000 mm 0,0 UV-I 48 W/m 5,0 C 14,2 C 0,0 km/h (0 Bft)
01.10.2015 18:40 14,4 C 53 % 1028,5 hPa 0,0 l/m 0,0 km/h (0 Bft) N-NW 347 5 min 0,000 mm 0,0 UV-I 40 W/m 4,9 C 14,4 C 0,0 km/h (0 Bft)
01.10.2015 18:45 14,4 C 53 % 1028,5 hPa 0,0 l/m 0,0 km/h (0 Bft) O 90 5 min 0,000 mm 0,0 UV-I 32 W/m 4,9 C 14,4 C 0,0 km/h (0 Bft)
01.10.2015 18:50 14,1 C 54 % 1028,4 hPa 0,0 l/m 0,0 km/h (0 Bft) O-NO 63 5 min 0,000 mm 0,0 UV-I 20 W/m 4,9 C 14,1 C 1,6 km/h (1 Bft)
01.10.2015 18:55 13,6 C 54 % 1028,4 hPa 0,0 l/m 0,4 km/h (0 Bft) NO 40 0 min 0,000 mm 0,0 UV-I 15 W/m 4,5 C 13,6 C 6,4 km/h (2 Bft)
01.10.2015 19:00 13,1 C 55 % 1028,5 hPa 0,0 l/m 0,1 km/h (0 Bft) O-NO 64 0 min 0,000 mm 0,0 UV-I 11 W/m 4,3 C 13,1 C 1,6 km/h (1 Bft)
01.10.2015 19:05 12,9 C 56 % 1028,6 hPa 0,0 l/m 0,0 km/h (0 Bft) O-NO 64 0 min 0,051 mm 0,0 UV-I 8 W/m 4,3 C 12,9 C 0,0 km/h (0 Bft)
01.10.2015 19:10 12,7 C 56 % 1028,6 hPa 0,0 l/m 0,0 km/h (0 Bft) O-NO 64 0 min 0,000 mm 0,0 UV-I 5 W/m 4,2 C 12,7 C 0,0 km/h (0 Bft)
01.10.2015 19:15 12,6 C 58 % 1028,7 hPa 0,0 l/m 0,0 km/h (0 Bft) O-NO 64 0 min 0,000 mm 0,0 UV-I 3 W/m 4,6 C 12,6 C 0,0 km/h (0 Bft)
01.10.2015 19:20 12,3 C 59 % 1028,7 hPa 0,0 l/m 0,0 km/h (0 Bft) O-NO 64 0 min 0,000 mm 0,0 UV-I 0 W/m 4,5 C 12,3 C 0,0 km/h (0 Bft)
01.10.2015 19:25 12,1 C 60 % 1028,7 hPa 0,0 l/m 0,0 km/h (0 Bft) O-NO 64 0 min 0,000 mm 0,0 UV-I 0 W/m 4,6 C 12,1 C 0,0 km/h (0 Bft)
01.10.2015 19:30 11,8 C 61 % 1028,8 hPa 0,0 l/m 0,0 km/h (0 Bft) O-NO 64 0 min 0,000 mm 0,0 UV-I 0 W/m 4,5 C 11,8 C 0,0 km/h (0 Bft)
01.10.2015 19:35 11,6 C 62 % 1028,8 hPa 0,0 l/m 0,0 km/h (0 Bft) O-NO 64 0 min 0,000 mm 0,0 UV-I 0 W/m 4,6 C 11,6 C 0,0 km/h (0 Bft)
01.10.2015 19:40 11,4 C 62 % 1028,9 hPa 0,0 l/m 0,0 km/h (0 Bft) O-NO 64 0 min 0,000 mm 0,0 UV-I 0 W/m 4,4 C 11,4 C 0,0 km/h (0 Bft)
01.10.2015 19:45 11,3 C 63 % 1028,9 hPa 0,0 l/m 0,0 km/h (0 Bft) O-NO 64 0 min 0,000 mm 0,0 UV-I 0 W/m 4,5 C 11,3 C 0,0 km/h (0 Bft)
01.10.2015 19:50 11,1 C 64 % 1029,0 hPa 0,0 l/m 0,0 km/h (0 Bft) O-NO 64 0 min 0,000 mm 0,0 UV-I 0 W/m 4,6 C 11,1 C 0,0 km/h (0 Bft)
01.10.2015 19:55 10,8 C 65 % 1028,9 hPa 0,0 l/m 0,0 km/h (0 Bft) O-NO 64 0 min 0,000 mm 0,0 UV-I 0 W/m 4,5 C 10,8 C 0,0 km/h (0 Bft)
01.10.2015 20:00 10,3 C 66 % 1029,0 hPa 0,0 l/m 0,0 km/h (0 Bft) O-NO 64 0 min 0,000 mm 0,0 UV-I 0 W/m 4,2 C 10,3 C 0,0 km/h (0 Bft)
01.10.2015 20:05 10,1 C 66 % 1029,0 hPa 0,0 l/m 0,0 km/h (0 Bft) O-NO 64 0 min 0,000 mm 0,0 UV-I 0 W/m 4,0 C 10,1 C 0,0 km/h (0 Bft)
01.10.2015 20:10 10,1 C 67 % 1029,1 hPa 0,0 l/m 0,0 km/h (0 Bft) O-NO 64 0 min 0,000 mm 0,0 UV-I 0 W/m 4,3 C 10,1 C 0,0 km/h (0 Bft)
01.10.2015 20:15 10,1 C 67 % 1029,1 hPa 0,0 l/m 0,0 km/h (0 Bft) O-NO 64 0 min 0,000 mm 0,0 UV-I 0 W/m 4,3 C 10,1 C 0,0 km/h (0 Bft)
01.10.2015 20:20 10,1 C 67 % 1029,1 hPa 0,0 l/m 0,0 km/h (0 Bft) O-NO 64 0 min 0,000 mm 0,0 UV-I 0 W/m 4,3 C 10,1 C 0,0 km/h (0 Bft)
01.10.2015 20:25 9,9 C 68 % 1029,2 hPa 0,0 l/m 0,0 km/h (0 Bft) O-NO 64 0 min 0,000 mm 0,0 UV-I 0 W/m 4,3 C 9,9 C 0,0 km/h (0 Bft)
01.10.2015 20:30 9,7 C 68 % 1029,2 hPa 0,0 l/m 0,0 km/h (0 Bft) O-NO 64 0 min 0,000 mm 0,0 UV-I 0 W/m 4,1 C 9,7 C 0,0 km/h (0 Bft)
01.10.2015 20:35 9,4 C 69 % 1029,3 hPa 0,0 l/m 0,0 km/h (0 Bft) O-NO 64 0 min 0,000 mm 0,0 UV-I 0 W/m 4,0 C 9,4 C 0,0 km/h (0 Bft)
01.10.2015 20:40 9,3 C 70 % 1029,2 hPa 0,0 l/m 0,0 km/h (0 Bft) O-NO 64 0 min 0,000 mm 0,0 UV-I 0 W/m 4,1 C 9,3 C 0,0 km/h (0 Bft)
01.10.2015 20:45 9,3 C 70 % 1029,3 hPa 0,0 l/m 0,0 km/h (0 Bft) O-NO 64 0 min 0,000 mm 0,0 UV-I 0 W/m 4,1 C 9,3 C 0,0 km/h (0 Bft)
01.10.2015 20:50 9,1 C 70 % 1029,3 hPa 0,0 l/m 0,0 km/h (0 Bft) O-NO 64 0 min 0,000 mm 0,0 UV-I 0 W/m 3,9 C 9,1 C 0,0 km/h (0 Bft)
01.10.2015 20:55 8,9 C 71 % 1029,2 hPa 0,0 l/m 0,0 km/h (0 Bft) O-NO 64 0 min 0,000 mm 0,0 UV-I 0 W/m 3,9 C 8,9 C 0,0 km/h (0 Bft)
01.10.2015 21:00 8,7 C 72 % 1029,2 hPa 0,0 l/m 0,0 km/h (0 Bft) O-NO 64 0 min 0,000 mm 0,0 UV-I 0 W/m 3,9 C 8,7 C 0,0 km/h (0 Bft)
01.10.2015 21:05 8,5 C 73 % 1029,3 hPa 0,0 l/m 0,0 km/h (0 Bft) O-NO 64 0 min 0,025 mm 0,0 UV-I 0 W/m 3,9 C 8,5 C 0,0 km/h (0 Bft)
01.10.2015 21:10 8,4 C 73 % 1029,3 hPa 0,0 l/m 0,0 km/h (0 Bft) O-NO 64 0 min 0,000 mm 0,0 UV-I 0 W/m 3,8 C 8,4 C 0,0 km/h (0 Bft)
01.10.2015 21:15 8,4 C 73 % 1029,4 hPa 0,0 l/m 0,0 km/h (0 Bft) O-NO 64 0 min 0,000 mm 0,0 UV-I 0 W/m 3,8 C 8,4 C 0,0 km/h (0 Bft)
01.10.2015 21:20 8,4 C 73 % 1029,3 hPa 0,0 l/m 0,0 km/h (0 Bft) O-NO 64 0 min 0,000 mm 0,0 UV-I 0 W/m 3,8 C 8,4 C 0,0 km/h (0 Bft)
01.10.2015 21:25 8,5 C 73 % 1029,3 hPa 0,0 l/m 0,0 km/h (0 Bft) O-NO 64 0 min 0,000 mm 0,0 UV-I 0 W/m 3,9 C 8,5 C 0,0 km/h (0 Bft)
01.10.2015 21:30 8,5 C 72 % 1029,2 hPa 0,0 l/m 0,0 km/h (0 Bft) O-NO 64 0 min 0,000 mm 0,0 UV-I 0 W/m 3,7 C 8,5 C 0,0 km/h (0 Bft)
01.10.2015 21:35 8,6 C 72 % 1029,3 hPa 0,0 l/m 0,2 km/h (0 Bft) O-NO 64 0 min 0,000 mm 0,0 UV-I 0 W/m 3,8 C 8,6 C 3,2 km/h (1 Bft)
01.10.2015 21:40 8,6 C 72 % 1029,3 hPa 0,0 l/m 0,0 km/h (0 Bft) O-NO 64 0 min 0,000 mm 0,0 UV-I 0 W/m 3,8 C 8,6 C 0,0 km/h (0 Bft)
01.10.2015 21:45 8,4 C 73 % 1029,3 hPa 0,0 l/m 0,0 km/h (0 Bft) O-NO 64 0 min 0,000 mm 0,0 UV-I 0 W/m 3,8 C 8,4 C 0,0 km/h (0 Bft)
01.10.2015 21:50 8,3 C 73 % 1029,3 hPa 0,0 l/m 0,6 km/h (0 Bft) O-NO 67 0 min 0,000 mm 0,0 UV-I 0 W/m 3,8 C 8,3 C 4,8 km/h (1 Bft)
01.10.2015 21:55 8,5 C 72 % 1029,2 hPa 0,0 l/m 0,1 km/h (0 Bft) NO 55 0 min 0,000 mm 0,0 UV-I 0 W/m 3,7 C 8,5 C 1,6 km/h (1 Bft)
01.10.2015 22:00 8,6 C 72 % 1029,1 hPa 0,0 l/m 0,3 km/h (0 Bft) NO 44 0 min 0,000 mm 0,0 UV-I 0 W/m 3,8 C 8,6 C 3,2 km/h (1 Bft)
01.10.2015 22:05 8,6 C 72 % 1029,1 hPa 0,0 l/m 0,0 km/h (0 Bft) NO 44 0 min 0,025 mm 0,0 UV-I 0 W/m 3,8 C 8,6 C 1,6 km/h (1 Bft)
01.10.2015 22:10 8,6 C 72 % 1029,2 hPa 0,0 l/m 0,0 km/h (0 Bft) NO 44 0 min 0,000 mm 0,0 UV-I 0 W/m 3,8 C 8,6 C 0,0 km/h (0 Bft)
01.10.2015 22:15 8,4 C 72 % 1029,1 hPa 0,0 l/m 0,0 km/h (0 Bft) NO 44 0 min 0,000 mm 0,0 UV-I 0 W/m 3,7 C 8,4 C 1,6 km/h (1 Bft)
01.10.2015 22:20 8,3 C 73 % 1029,1 hPa 0,0 l/m 0,0 km/h (0 Bft) NO 44 0 min 0,000 mm 0,0 UV-I 0 W/m 3,8 C 8,3 C 0,0 km/h (0 Bft)
01.10.2015 22:25 8,2 C 73 % 1029,1 hPa 0,0 l/m 0,3 km/h (0 Bft) NO 44 0 min 0,000 mm 0,0 UV-I 0 W/m 3,7 C 8,2 C 3,2 km/h (1 Bft)
01.10.2015 22:30 8,1 C 74 % 1028,9 hPa 0,0 l/m 1,0 km/h (0 Bft) O-NO 59 0 min 0,000 mm 0,0 UV-I 0 W/m 3,8 C 8,1 C 4,8 km/h (1 Bft)
01.10.2015 22:35 8,2 C 74 % 1028,9 hPa 0,0 l/m 0,9 km/h (0 Bft) O 82 0 min 0,000 mm 0,0 UV-I 0 W/m 3,8 C 8,2 C 4,8 km/h (1 Bft)
01.10.2015 22:40 8,3 C 73 % 1029,0 hPa 0,0 l/m 0,2 km/h (0 Bft) O-NO 75 0 min 0,000 mm 0,0 UV-I 0 W/m 3,8 C 8,3 C 3,2 km/h (1 Bft)
01.10.2015 22:45 8,2 C 74 % 1029,0 hPa 0,0 l/m 0,0 km/h (0 Bft) O-NO 75 0 min 0,000 mm 0,0 UV-I 0 W/m 3,8 C 8,2 C 1,6 km/h (1 Bft)
01.10.2015 22:50 7,9 C 75 % 1029,0 hPa 0,0 l/m 0,3 km/h (0 Bft) O-SO 109 0 min 0,000 mm 0,0 UV-I 0 W/m 3,7 C 7,9 C 3,2 km/h (1 Bft)
01.10.2015 22:55 7,7 C 75 % 1028,9 hPa 0,0 l/m 0,1 km/h (0 Bft) O-SO 107 0 min 0,000 mm 0,0 UV-I 0 W/m 3,6 C 7,7 C 3,2 km/h (1 Bft)
01.10.2015 23:00 7,6 C 76 % 1028,9 hPa 0,0 l/m 0,4 km/h (0 Bft) O-NO 78 0 min 0,000 mm 0,0 UV-I 0 W/m 3,6 C 7,6 C 4,8 km/h (1 Bft)
01.10.2015 23:05 7,5 C 76 % 1028,9 hPa 0,0 l/m 0,1 km/h (0 Bft) O-NO 78 0 min 0,026 mm 0,0 UV-I 0 W/m 3,5 C 7,5 C 1,6 km/h (1 Bft)
01.10.2015 23:10 7,4 C 76 % 1028,8 hPa 0,0 l/m 0,1 km/h (0 Bft) O-NO 78 0 min 0,000 mm 0,0 UV-I 0 W/m 3,5 C 7,4 C 1,6 km/h (1 Bft)
01.10.2015 23:15 7,4 C 76 % 1028,9 hPa 0,0 l/m 0,0 km/h (0 Bft) O-NO 78 0 min 0,000 mm 0,0 UV-I 0 W/m 3,5 C 7,4 C 0,0 km/h (0 Bft)
01.10.2015 23:20 7,4 C 76 % 1028,9 hPa 0,0 l/m 0,0 km/h (0 Bft) O-NO 78 0 min 0,000 mm 0,0 UV-I 0 W/m 3,5 C 7,4 C 0,0 km/h (0 Bft)
01.10.2015 23:25 7,4 C 76 % 1028,9 hPa 0,0 l/m 0,0 km/h (0 Bft) O-NO 78 0 min 0,000 mm 0,0 UV-I 0 W/m 3,5 C 7,4 C 0,0 km/h (0 Bft)
01.10.2015 23:30 7,3 C 77 % 1028,9 hPa 0,0 l/m 0,0 km/h (0 Bft) O-NO 78 0 min 0,000 mm 0,0 UV-I 0 W/m 3,5 C 7,3 C 0,0 km/h (0 Bft)
01.10.2015 23:35 7,2 C 77 % 1028,9 hPa 0,0 l/m 0,0 km/h (0 Bft) O-NO 78 0 min 0,000 mm 0,0 UV-I 0 W/m 3,4 C 7,2 C 1,6 km/h (1 Bft)
01.10.2015 23:40 7,2 C 77 % 1028,7 hPa 0,0 l/m 0,8 km/h (0 Bft) O-NO 78 0 min 0,000 mm 0,0 UV-I 0 W/m 3,4 C 7,2 C 3,2 km/h (1 Bft)
01.10.2015 23:45 7,1 C 77 % 1028,8 hPa 0,0 l/m 0,2 km/h (0 Bft) O-NO 78 0 min 0,000 mm 0,0 UV-I 0 W/m 3,3 C 7,1 C 1,6 km/h (1 Bft)
01.10.2015 23:50 7,1 C 77 % 1028,8 hPa 0,0 l/m 0,0 km/h (0 Bft) O-NO 78 0 min 0,000 mm 0,0 UV-I 0 W/m 3,3 C 7,1 C 0,0 km/h (0 Bft)
01.10.2015 23:55 7,0 C 77 % 1028,6 hPa 0,0 l/m 0,0 km/h (0 Bft) O-NO 78 0 min 0,000 mm 0,0 UV-I 0 W/m 3,2 C 7,0 C 0,0 km/h (0 Bft)
_ Min-Zeit 07:55 15:30 17:55 - 01:10 - - - - - - 07:40 07:40 01:10
Minimum _ 5,0 C 44 % 1028,1 hPa - 0,0 km/h (0 Bft) - - - - - - 1,9 C 5,1 C 0,0 km/h (0 Bft)
_ Max-Zeit 14:15 04:40 00:00 00:00 16:15 - - 08:15 14:05 12:50 13:15 13:45 14:15 14:35
Maximum _ 16,9 C 80 % 1032,3 hPa 0,0 l/m 14,0 km/h
NO (3 Bft)
- - 5 min 0,356 mm 3,2 UV-I 605 W/m 6,3 C 16,8 C 33,8 km/h
N-NO (5 Bft)
Durchschnitt _ 10,3 C 65 % 1030,0 hPa #0,0 l/m 3,5 km/h (1 Bft) O-NO - #10:40 h #2,845 mm 2,0 UV-I 356 W/m 3,7 C 9,8 C 10,0 km/h (2 Bft)